Temp
100 98 99 97 95 94 92 92 92 91 89 86 87 87 86 87 87 90 90 89 92 91 91 91 89 85 85 85 85 84 83 84 84
99 98 98 98 96 96 94 93 92 91 89 88 88 89 87 86 87 87 90 90 89 91 89 92 88 86 85 85 85 83 82 84 82
99 99 99 100 98 97 96 96 95 93 91 89 89 90 89 88 88 87 88 89 87 87 89 87 87 85 85 84 83 83 81 83 83
101 100 98 99 100 100 98 98 97 95 93 91 90 91 90 89 89 89 88 88 86 86 86 85 84 83 83 84 82 82 80 80 82
105 103 100 100 101 100 98 97 98 97 96 94 93 93 90 89 89 89 88 85 84 81 83 83 82 81 80 80 83 82 80 80 82
101 98 98 98 100 97 97 97 97 98 98 98 98 94 92 90 89 89 88 85 84 83 82 77 77 76 76 78 77 82 81 81 81
98 94 94 95 96 95 95 96 95 95 98 100 99 98 94 91 89 89 87 86 78 77 79 76 71 73 73 77 80 80 80 81 81
98 93 92 92 93 93 92 92 93 93 96 96 98 95 95 92 90 89 85 82 79 77 77 77 72 73 74 77 78 78 80 81 81
97 93 92 92 92 92 91 91 91 92 92 94 94 92 92 92 88 86 83 79 77 78 76 75 73 73 75 75 78 73 70 76 81
96 95 93 92 92 93 92 92 91 91 90 92 91 89 89 88 86 83 80 79 78 76 75 74 77 77 76 75 77 67 67 68 81
98 96 95 93 96 94 92 95 95 93 91 88 88 86 86 86 84 81 80 78 76 76 77 76 76 77 76 77 80 65 63 66 78
96 97 97 94 96 92 90 93 92 90 89 87 86 85 84 84 83 80 78 76 76 78 77 77 78 79 78 77 78 60 61 65 80
95 95 95 93 93 91 91 91 92 89 88 86 85 85 84 83 82 81 78 77 77 76 77 78 80 78 78 74 76 59 59 64 81
93 92 91 91 90 89 88 90 91 88 88 87 88 87 85 82 81 80 79 77 75 76 76 75 76 76 78 76 70 74 56 57 73
88 88 90 92 89 87 89 90 89 86 85 87 86 85 82 78 78 78 80 75 73 71 72 73 74 73 74 76 79 61 56 55 58
89 90 91 92 89 85 86 87 87 85 82 82 82 78 75 75 77 76 75 72 70 72 74 77 73 70 76 72 78 67 54 53 53
86 87 87 89 87 85 82 82 83 82 80 80 80 76 76 74 73 74 74 74 74 75 76 75 73 74 69 68 69 73 73 62 66
83 83 85 87 85 84 80 80 80 81 80 79 77 74 75 74 75 73 74 71 68 78 70 70 79 76 70 69 69 74 66 67 78
79 81 82 82 82 81 80 80 79 80 78 78 77 76 77 79 80 79 77 75 73 46 48 46 46 46 60 65 54 48 46 45 45
70 78 78 81 80 80 79 79 79 80 80 79 78 79 79 82 78 82 80 79 78 75 58 44 43 43 45 48 47 45 43 43 42
MSLP
997.18 998.55 999.67 1000.79 1002.01 1003.21 1004.32 1005.29 1006.23 1007.18 1007.98 1008.87 1009.56 1010.26 1010.96 1011.57 1012.05 1012.45 1012.81 1013.07 1013.17 1013.64 1013.90 1014.36 1015.01 1016.12 1016.35 1016.56 1016.73 1017.02 1017.35 1017.60 1017.92
995.95 997.06 998.02 999.40 1000.78 1001.92 1003.09 1004.20 1005.17 1006.11 1007.08 1007.98 1008.63 1009.38 1010.21 1010.76 1011.39 1011.87 1011.97 1012.52 1013.21 1013.60 1014.01 1014.26 1014.98 1015.44 1016.20 1016.46 1016.77 1017.09 1017.38 1017.26 1017.51
995.00 996.01 997.03 998.00 999.27 1000.44 1001.67 1002.93 1004.01 1005.12 1006.06 1006.95 1007.86 1008.42 1009.18 1009.80 1010.45 1011.22 1011.82 1012.04 1012.41 1012.78 1013.39 1014.58 1015.04 1015.62 1015.69 1015.94 1016.70 1017.29 1017.47 1017.08 1017.09
993.96 994.87 995.99 996.92 997.82 999.20 1000.70 1001.79 1002.82 1003.83 1005.01 1005.98 1006.74 1007.43 1007.97 1008.72 1009.49 1010.25 1010.93 1011.37 1012.42 1013.38 1013.66 1014.52 1015.21 1015.82 1015.97 1015.99 1016.02 1016.94 1017.33 1017.14 1016.84
992.78 993.90 994.90 996.16 997.05 998.31 999.52 1000.51 1001.54 1002.44 1003.53 1004.64 1005.49 1006.05 1006.94 1007.91 1008.72 1009.34 1009.88 1010.77 1011.45 1012.02 1013.40 1013.52 1014.23 1015.41 1016.21 1016.40 1016.05 1016.38 1016.88 1016.83 1016.26
992.96 993.97 994.64 995.66 996.43 997.42 998.52 999.56 1000.44 1001.19 1002.29 1003.12 1004.16 1005.19 1006.13 1007.03 1007.64 1008.18 1008.97 1010.10 1011.12 1011.75 1012.68 1012.86 1013.60 1012.65 1014.33 1015.30 1015.66 1015.86 1016.06 1016.23 1016.05
993.05 994.00 994.64 995.46 996.12 996.99 997.97 998.75 999.60 1000.45 1001.23 1002.18 1003.08 1003.96 1005.09 1005.91 1006.64 1007.51 1008.64 1009.53 1010.64 1011.22 1011.81 1012.15 1012.37 1011.77 1012.84 1013.85 1015.11 1015.33 1015.40 1015.42 1015.45
992.55 993.74 994.39 995.04 995.67 996.48 997.52 998.40 999.17 1000.14 1000.91 1001.63 1002.31 1003.26 1004.08 1005.01 1006.14 1007.13 1008.34 1009.17 1009.83 1010.24 1010.74 1011.31 1011.26 1011.28 1012.23 1013.16 1014.01 1014.18 1014.65 1014.72 1014.76
992.02 993.16 993.71 994.59 995.50 996.31 997.02 998.02 998.93 999.82 1000.64 1001.39 1002.27 1002.94 1003.74 1004.64 1005.70 1006.70 1007.51 1008.39 1009.29 1009.48 1009.76 1009.91 1010.55 1010.98 1011.68 1012.45 1013.03 1013.02 1013.42 1014.05 1014.11
991.31 992.19 992.89 993.96 994.88 995.91 996.75 997.72 998.67 999.53 1000.48 1001.23 1001.97 1002.84 1003.46 1004.23 1005.16 1006.09 1007.06 1008.07 1008.67 1008.87 1009.18 1009.89 1010.06 1010.59 1011.29 1011.86 1012.22 1012.52 1013.00 1013.49 1013.85
990.79 991.62 992.47 993.60 994.37 995.45 996.63 997.41 998.37 999.19 1000.11 1000.92 1001.64 1002.48 1003.15 1003.98 1004.89 1005.82 1006.58 1007.34 1007.99 1008.40 1008.95 1009.53 1010.06 1010.54 1011.06 1011.41 1011.61 1011.96 1012.72 1013.18 1013.53
990.93 991.30 992.30 993.20 994.13 995.49 996.35 996.96 997.94 998.85 999.86 1000.70 1001.42 1002.18 1002.98 1003.76 1004.66 1005.58 1006.28 1006.84 1007.21 1007.58 1008.03 1008.84 1009.12 1009.72 1010.12 1010.72 1011.08 1011.50 1011.83 1012.64 1012.57
991.35 991.63 992.51 993.27 994.14 995.28 996.18 996.71 997.78 998.71 999.61 1000.34 1001.00 1001.67 1002.52 1003.38 1004.27 1004.82 1005.51 1006.11 1006.76 1007.65 1008.11 1007.85 1008.40 1008.98 1009.52 1009.72 1010.27 1010.80 1011.15 1011.67 1011.55
991.94 992.03 993.16 993.51 994.69 995.41 996.16 996.96 997.78 998.59 999.42 999.99 1000.54 1001.46 1002.28 1003.18 1003.84 1004.43 1004.89 1005.64 1005.96 1007.54 1008.30 1008.30 1008.64 1008.82 1009.13 1009.36 1010.11 1010.11 1010.89 1011.30 1011.28
992.88 992.91 994.03 994.12 994.69 995.88 996.75 997.45 998.07 998.73 999.41 1000.09 1001.00 1001.87 1002.63 1003.47 1004.09 1004.54 1004.97 1005.58 1006.06 1007.04 1008.00 1008.39 1008.48 1008.67 1008.93 1009.24 1009.16 1010.12 1010.88 1011.39 1011.55
993.28 993.48 994.20 994.91 995.81 996.72 997.44 997.80 998.29 998.97 1000.04 1000.74 1001.37 1002.33 1003.05 1003.72 1004.30 1005.04 1005.46 1005.95 1006.69 1007.09 1007.66 1007.80 1008.00 1008.47 1008.44 1008.81 1008.87 1010.21 1010.91 1011.51 1011.83
994.49 995.07 995.50 995.91 996.51 997.07 998.04 998.59 998.73 999.38 1000.50 1001.12 1001.64 1002.47 1003.18 1003.99 1004.73 1005.15 1005.58 1006.29 1006.90 1007.17 1007.23 1007.69 1007.93 1008.04 1008.54 1008.84 1009.35 1009.71 1010.30 1011.60 1011.62
996.23 996.38 996.87 997.23 997.47 997.88 998.64 998.94 999.38 999.96 1000.62 1001.39 1001.96 1002.72 1003.28 1003.94 1004.45 1005.20 1005.70 1006.50 1007.24 1007.09 1007.54 1007.78 1007.96 1008.54 1008.93 1009.16 1009.08 1009.12 1009.70 1010.15 1009.98
998.25 997.77 997.90 998.62 998.82 999.05 999.27 999.45 999.82 1000.28 1001.02 1001.56 1001.95 1002.70 1003.37 1003.53 1003.64 1004.38 1005.23 1006.23 1007.58 1008.75 1008.63 1009.00 1009.20 1009.35 1009.19 1009.34 1009.27 1009.74 1010.50 1011.20 1011.14
998.95 998.34 998.63 999.38 999.56 999.77 999.73 999.94 1000.16 1000.82 1001.50 1001.94 1002.02 1001.98 1002.66 1002.94 1003.30 1003.71 1004.24 1005.26 1006.10 1007.24 1009.30 1009.42 1009.55 1009.51 1009.32 1009.45 1010.35 1010.54 1011.17 1011.46 1011.69
Wind_Speed
19 24 24 25 25 23 23 23 22 21 19 18 18 18 17 15 17 12 12 12 9 9 8 7 7 9 8 8 7 6 6 6 6
16 22 26 25 25 24 23 23 22 21 19 19 19 19 16 16 15 16 12 11 11 8 7 6 7 10 8 8 8 7 8 7 7
17 20 22 25 25 26 24 23 22 22 21 20 18 18 17 15 16 15 14 13 13 13 10 8 8 10 9 10 8 8 9 8 8
16 18 21 23 25 24 23 23 22 22 20 20 19 18 18 17 16 16 15 15 13 10 9 9 9 8 8 9 10 10 10 10 8
11 12 18 20 21 23 24 24 23 22 21 20 20 19 17 17 16 16 17 14 14 15 11 13 12 7 7 7 8 10 12 12 10
7 8 13 17 19 21 23 23 22 22 21 22 20 18 18 18 18 19 17 15 15 13 15 12 12 15 12 10 8 12 13 13 12
10 8 11 16 18 20 20 20 19 19 20 20 20 19 18 17 18 17 15 14 16 15 16 16 13 13 12 10 13 12 13 14 13
11 12 14 18 19 18 17 17 17 17 18 17 17 16 17 17 14 14 14 15 18 16 17 17 14 13 11 10 13 10 14 14 13
15 16 16 18 19 19 20 18 17 16 15 14 13 13 14 13 13 14 15 16 18 18 18 18 13 12 13 14 12 15 11 12 12
17 18 18 19 20 17 16 16 15 14 13 13 13 13 13 14 14 16 16 16 17 18 17 13 12 10 12 17 16 10 14 12 12
16 14 15 16 16 15 14 14 15 14 14 13 13 13 13 14 14 15 15 15 18 18 16 16 12 11 13 16 14 9 11 12 12
12 12 13 14 14 15 16 16 15 15 15 14 14 14 14 14 14 14 14 15 17 17 17 16 14 10 12 15 14 13 16 12 13
10 13 14 16 18 17 17 17 17 16 15 15 15 15 15 14 14 15 16 15 14 12 13 14 12 11 11 13 12 16 18 17 11
10 14 16 19 18 16 17 16 16 15 15 14 13 13 14 14 14 13 11 12 10 10 11 8 10 11 14 10 10 11 15 14 9
17 20 18 19 18 16 14 14 13 14 12 11 11 11 11 10 11 9 10 10 9 9 9 10 10 10 10 11 12 6 11 10 11
18 19 16 15 15 14 12 10 9 10 10 10 11 11 11 10 10 9 9 8 7 7 9 9 8 7 9 9 6 6 8 4 6
15 14 13 13 12 12 10 9 10 11 10 10 10 11 10 9 8 9 9 8 7 7 8 8 8 8 0 1 3 6 7 6 7
13 12 10 8 8 8 9 9 9 9 9 9 9 9 9 10 9 8 7 4 5 4 6 5 3 4 4 5 5 5 4 3 8
8 10 9 6 7 8 8 9 9 9 10 10 11 10 7 7 7 8 7 6 6 12 10 6 4 2 3 4 7 13 14 10 11
8 9 9 5 5 6 7 9 10 10 9 9 9 8 8 7 4 6 6 6 7 8 6 9 10 9 9 11 12 12 10 9 9
Wind_Direction
192 203 201 201 199 201 200 200 201 203 201 206 204 204 207 210 211 215 217 214 231 209 220 205 194 199 202 218 203 207 193 202 231
204 205 205 198 198 201 199 200 199 201 203 204 204 203 204 209 208 218 214 223 202 208 219 212 192 192 203 213 213 210 198 230 202
213 203 206 203 199 198 197 198 200 202 205 206 205 205 204 208 207 206 210 209 203 212 200 219 181 200 194 190 204 222 217 226 211
224 204 203 206 202 201 195 199 200 202 203 205 204 202 204 207 205 201 204 207 204 211 181 183 193 208 208 203 193 218 227 247 261
226 213 204 204 204 198 195 200 199 202 201 203 204 203 201 204 204 203 202 201 198 172 195 161 179 171 224 248 228 223 230 236 239
233 229 204 201 199 192 201 199 201 204 202 203 203 205 200 204 205 205 205 202 184 178 181 162 176 152 192 222 232 235 233 237 240
239 216 203 198 199 192 198 200 197 203 207 206 207 202 205 205 208 207 203 199 172 175 178 165 174 178 176 202 239 230 235 235 235
230 213 197 196 195 189 191 195 195 200 207 204 210 206 210 209 206 206 198 190 190 174 173 179 185 177 178 202 225 219 231 235 233
230 217 201 199 194 192 190 191 191 189 197 200 200 212 210 212 192 197 193 193 190 186 187 189 193 197 198 206 223 219 204 229 229
230 220 201 194 192 192 185 184 183 179 182 185 186 194 198 197 193 197 195 197 199 196 197 205 219 204 203 218 227 210 203 205 239
230 217 193 187 186 176 170 175 173 169 169 175 180 185 190 188 191 194 198 195 204 203 203 203 206 213 221 226 229 186 146 161 223
234 199 190 173 165 162 165 167 156 158 163 169 171 177 183 183 189 195 197 201 204 205 201 208 215 228 234 230 233 169 173 185 223
197 171 178 170 160 154 158 150 153 153 155 162 172 172 179 178 185 191 191 202 203 205 219 209 216 236 227 224 229 182 184 195 220
152 133 148 139 144 142 139 143 146 151 155 164 165 169 171 177 184 191 187 195 172 197 211 211 223 232 230 218 211 201 195 206 216
131 123 136 126 125 125 132 139 147 146 152 145 152 159 160 168 174 185 186 177 153 168 203 212 218 226 228 227 225 217 182 202 244
111 112 118 117 117 117 121 126 135 136 124 141 146 144 160 162 163 180 156 149 161 182 201 231 224 221 231 229 179 136 109 184 210
92 95 102 109 118 121 116 114 115 122 145 147 148 150 155 154 163 172 165 172 178 215 194 211 220 225 177 81 170 184 158 159 157
81 80 74 80 101 108 115 118 115 126 133 146 148 154 165 169 166 173 173 82 17 239 59 8 225 199 212 222 199 182 117 173 179
71 80 70 73 94 115 122 119 121 131 143 162 154 150 166 153 162 163 173 155 147 50 45 45 31 360 325 104 63 104 91 82 78
62 78 77 59 75 100 118 123 121 127 139 147 150 146 144 145 194 167 165 174 189 170 95 77 58 46 49 67 113 105 111 116 122